SL-3 DEB, 21126

Orbit data source: Space-Track

SL-3 DEB, 21126 is space debris in LEO originally from a launch on Fri, 28 Aug 1964 UTC launched from the Tyuratam Missile And Space Complex (TTMTR). Debris objects in space refer to the collection of defunct objects orbiting the Earth. Examples of debris include non-operational satellites, rocket bodies, and fragments generated from explosions, collisions, or faulty payload assembly.

Loading next visibility...
Identifier
21126, 1964-053C
Orbit
LEO
Last TLE update
14 hours ago
Origin
Manufacturer
Unknown
Mission
Spacecraft
Bus & Motor
Unknown
Mass
Unknown
Launch date (UTC)
1964-08-28 (61 years ago)
Launch vehicle
Unknown
Launch site
Tyuratam Missile And Space Complex (TTMTR)
Object type
Payload
Rocket body
Debris
Shape & HBR
Unknown
Radar Cross Section
Small (<0.1 m²)

Expand to show TLE details & history

TLE from 14 hours ago
0 SL-3 DEB
1 21126U 64053C   25128.71654802  .00000882  00000-0  16914-3 0  9993
2 21126  65.0776 271.6383 0051015   9.4944  94.6516 14.68883269206528
Epoch: 2025-05-08T17:11Z
Definitive object data (Epoch: 2025-05-08T17:11:49.748Z)
Latitude
61.41401°
Longitude
-91.11255°
Altitude
677.244 km
Speed
7.523 km/s
True Right ascension
02h 14m 30s
True Declination
61° 16' 03"
Sunlit
Object was in daylight at TLE epoch
Visualization TLE readout
Latitude
-19.21146°
Longitude
-25.50407°
Altitude
706.226 km
Speed
7.484 km/s
Apparent Right ascension
05h 03m 09s
Apparent Declination
-31° 55' 53"
Sunlit
Object is in daylight
Visualization observer readout
Local Sidereal Time
14:51:27
Azimuth
276.363° WNW
Elevation
-62.344°
Doppler factor
1
Orbital elements
Apogee altitude
699.1 km
Perigee altitude
627.258 km
Semi-major axis
7,041.316 km
Eccentricity
0.0051015
Inclination
65.0776°
RAAN
271.6383°
Arg. of periapsis
9.4944°
True anomaly
95.23395°
Mean anomaly
94.6516°
Eccentric anomaly
94.94281°
Mean motion
3.67335 °/min
BSTAR
0.00016914
Orbital period
98 mins
Loading maneuver chart data...
Loading SW <> Apogee altitude chart data...
Loading historical data...
Loading historical data...
Loading historical data...
Loading historical data...
Loading historical data...
Loading historical data...
Loading historical data...
Other satellites on launch #53 in the year 1964 (1964-08-28 UTC)

SL-3 DEB Visibility forecast

Observer location: undefined°, undefined°

Span
Click to sort rows by Start time (UTC) header in descending order
Start Az.
Max El. time (UTC)
Max El. Az.
Max El.
End time (UTC)
End Az.
8 mins2025-05-09 10:49:34.861Z189.246° SSW2025-05-09 10:53:34.861Z109.607° ESE37.205°2025-05-09 10:57:34.861Z42.832° NE
5 mins2025-05-09 12:32:34.861Z281.722° WNW2025-05-09 12:34:34.861Z315.012° NNW19.148°2025-05-09 12:37:34.861Z359.347° N
7 mins2025-05-09 19:24:34.861Z354.519° N2025-05-09 19:27:34.861Z55.844° ENE31.283°2025-05-09 19:31:34.861Z118.205° SE
6 mins2025-05-09 21:05:34.861Z291.566° WNW2025-05-09 21:08:34.861Z239.147° WSW23.49°2025-05-09 21:11:34.861Z196.708° SSW
|